カタログに戻る

FENGYUN 1C DEB

運用中PO
NORAD 33688·DEBRIS·🇨🇳 China

打ち上げ May 10, 1999 から Taiyuan Satellite Launch Center

Loading…

次のパス (今後24時間)

TLE

最新Source: Space-Track

元期: Sep 12, 2026, 08:13 UTC

1 33688U 99025DFZ 26255.34293056  .00005837  00000-0  14844-2 0  9991
2 33688  99.3608  30.7914 0050030 173.8850 186.2963 14.50382556954427

AllMySatでFENGYUN 1C DEBをリアルタイム追跡

Download on the App Store